レモン-パンスターズ彗星

P/2015 B4 ( Lemmon-PanSTARRS )

English version
Home page
Updated on June 11, 2016

---------------------------------------------------------------------

・ プロフィール

発見日 2015年1月16日、2月16日、2016年3月13日
発見光度 20.4等、20.6等、21.1等
発見者 R. A. Kowalski (Mt. Lemmon Survey), Pan-STARRS 1 telescope (Haleakala)

・ 写真集

・ 軌道要素

Epoch 2015 Feb. 27.0 TT = JDT 2457080.5
T 2015 Feb. 19.92976 TT                                 MPCW
q   3.7585242            (2000.0)            P               Q
n   0.03805584     Peri.  227.59331     -0.70439301     -0.70915528
a   8.7536371      Node   267.21496     +0.65987381     -0.63840999
e   0.5706329      Incl.    1.74894     +0.26152827     -0.29921809
P  25.90
From 78 observations 2015 Jan. 16-2016 Apr. 27, mean residual 0".3.

・ 光度変化

        m1 = 11.5 + 5 logΔ + 10.0 log r(t - 400)

---------------------------------------------------------------------

軌道要素はM.P.E.C. 2016-K18に掲載されたものです。
光度グラフはComet for Windowsで作成したものです。

---------------------------------------------------------------------

Copyright(C) Seiichi Yoshida (comet@aerith.net). All rights reserved.